Weather History for Del Rio Laughlin AFB, TX

Change the Weather History Date:

Saturday, August 30, 2014

  Actual Average Record
Temperature  
Mean Temperature 87 °F -  
Max Temperature 98 °F 96 °F 103 °F (2011)
Min Temperature 76 °F 74 °F 67 °F (2012)
Cooling Degree Days 22    
Growing Degree Days 37 (Base 50)    
Moisture  
Dew Point 67 °F    
Average Humidity 53    
Maximum Humidity 81    
Minimum Humidity 30    
Precipitation  
Precipitation 0.00 in - - ()
Sea Level Pressure  
Sea Level Pressure 29.86 in    
Wind  
Wind Speed 9 mph (ESE)    
Max Wind Speed 14 mph    
Max Gust Speed 21 mph    
Visibility 10 miles    
Events      
Averages and records for this station are not official NWS values.
T = Trace of Precipitation, MM = Missing Value Source: NWS Daily Summary

Daily Weather History Graph

Daily Weather History Graph

Search for Another Location

Airport:

Trip Planner

Search our weather history database for the weather conditions in past years. The results will help you decide how hot, cold, wet, or windy it might be!

Date:

Astronomy

Aug. 30, 2014 Rise Set
Actual Time 7:19 AM CDT 8:07 PM CDT
Civil Twilight 6:55 AM CDT 8:31 PM CDT
Nautical Twilight 6:26 AM CDT 9:00 PM CDT
Astronomical Twilight 5:57 AM CDT 9:29 PM CDT
Moon 11:44 AM CDT (8/30) 11:08 PM CDT (8/30)
Length of Visible Light 13h 36m
Length of Day
12h 47m
Waxing Crescent, 23% of the Moon is Illuminated
Aug 30
Waxing Crescent
Sep 2
First Quarter
Sep 8
Full
Sep 15
Last Quarter
Sep 24
New

Hourly Weather History & Observations

Time (CDT) Temp. Heat Index Dew Point Humidity Pressure Visibility Wind Dir Wind Speed Gust Speed Precip Events Conditions
12:58 AM 86.9 °F 89.9 °F 67.3 °F 52% 29.86 in 10.0 mi SE 11.5 mph - N/A   Overcast
1:58 AM 84.7 °F 88.2 °F 68.4 °F 58% 29.86 in 10.0 mi SE 12.7 mph - N/A   Mostly Cloudy
2:58 AM 82.9 °F 86.7 °F 69.8 °F 64% 29.88 in 10.0 mi SE 9.2 mph - N/A   Partly Cloudy
3:58 AM 81.3 °F 84.6 °F 69.6 °F 67% 29.88 in 10.0 mi SE 10.4 mph - N/A   Clear
4:58 AM 79.7 °F - 69.8 °F 72% 29.88 in 10.0 mi ESE 8.1 mph - N/A   Clear
5:58 AM 78.3 °F - 70.3 °F 77% 29.88 in 10.0 mi ESE 8.1 mph - N/A   Clear
6:58 AM 76.8 °F - 70.0 °F 79% 29.88 in 10.0 mi ESE 4.6 mph - N/A   Clear
7:58 AM 76.5 °F - 70.2 °F 81% 29.91 in 10.0 mi East 4.6 mph - N/A   Clear
8:58 AM 79.7 °F - 70.5 °F 73% 29.91 in 10.0 mi East 5.8 mph - N/A   Clear
9:58 AM 82.8 °F 87.4 °F 71.2 °F 68% 29.92 in 10.0 mi ESE 6.9 mph - N/A   Clear
10:58 AM 86.0 °F 91.1 °F 70.5 °F 60% 29.92 in 10.0 mi East 4.6 mph - N/A   Clear
11:58 AM 88.9 °F 93.8 °F 69.6 °F 53% 29.91 in 10.0 mi Variable 6.9 mph - N/A   Clear
12:58 PM 91.0 °F 96.1 °F 69.3 °F 49% 29.88 in 10.0 mi Variable 5.8 mph - N/A   Clear
1:58 PM 94.1 °F 98.9 °F 68.5 °F 43% 29.86 in 10.0 mi SE 5.8 mph - N/A   Clear
2:58 PM 96.8 °F 101.2 °F 67.3 °F 38% 29.83 in 10.0 mi SE 5.8 mph - N/A   Clear
3:58 PM 98.1 °F 100.7 °F 64.2 °F 33% 29.81 in 10.0 mi East 6.9 mph 20.7 mph N/A   Clear
4:58 PM 98.2 °F 99.4 °F 61.7 °F 30% 29.78 in 10.0 mi SE 12.7 mph - N/A   Scattered Clouds
5:58 PM 97.5 °F 99.2 °F 62.8 °F 32% 29.78 in 10.0 mi East 12.7 mph - N/A   Scattered Clouds
6:58 PM 98.1 °F 99.6 °F 62.2 °F 31% 29.78 in 10.0 mi ESE 12.7 mph - N/A   Clear
7:58 PM 95.7 °F 97.2 °F 62.8 °F 34% 29.79 in 10.0 mi SE 13.8 mph - N/A   Clear
8:58 PM 92.8 °F 93.9 °F 62.8 °F 37% 29.83 in 10.0 mi SE 8.1 mph - N/A   Clear
9:58 PM 89.6 °F 90.4 °F 63.0 °F 41% 29.85 in 10.0 mi SE 12.7 mph - N/A   Clear
10:58 PM 89.6 °F 92.2 °F 66.2 °F 46% 29.88 in 10.0 mi SE 13.8 mph - N/A   Clear
11:58 PM 88.2 °F 90.6 °F 66.4 °F 48% 29.86 in 10.0 mi SSE 10.4 mph - N/A   Clear